GALAXY 32 (G-32)

Last updated on Sun Apr 05 2026 00:02:53 GMT+0000 (Coordinated Universal Time)

1 54244U 22153B 26094.23466032 -.00000175 00000+0 00000+0 0 9991 2 54244 0.0111 169.0684 0003056 206.5964 170.3594 1.00271821 12402
UTC large
Height (km)
Speed (km/s)
/
Latitude / Longitude
Inclination (degrees)
Orbital Period (minutes)
Azimuth
Elevation
Range (km)
Doppler Factor

Next 0 passes for location: London (51.5072 / 0.1276)

Sorry there are no passes over London.